Weather History for KDYT - May, 2013

Change the Weather History Date:

Monday, May 27, 2013

  Actual Average Record
Temperature  
Mean Temperature 44 °F -  
Max Temperature 48 °F 59 °F 86 °F (1966)
Min Temperature 39 °F 41 °F 30 °F (1950)
Degree Days  
Heating Degree Days 22    
Moisture  
Dew Point 37 °F    
Average Humidity 80    
Maximum Humidity 93    
Minimum Humidity 66    
Precipitation  
Precipitation 0.00 in - - ()
Sea Level Pressure  
Sea Level Pressure 30.04 in    
Wind  
Wind Speed 8 mph (ENE)    
Max Wind Speed 15 mph    
Max Gust Speed -    
Visibility 10 miles    
Events      
Averages and records for this station are not official NWS values.
T = Trace of Precipitation, MM = Missing Value Source: NWS Daily Summary

Daily Weather History Graph

Daily Weather History Graph

Search for Another Location

Airport or City:

Trip Planner

Search our weather history database for the weather conditions in past years. The results will help you decide how hot, cold, wet, or windy it might be!

Date:

Astronomy

May. 27, 2013 Rise Set
Actual Time 5:21 AM CDT 8:49 PM CDT
Civil Twilight 4:43 AM CDT 9:27 PM CDT
Nautical Twilight 3:54 AM CDT 10:17 PM CDT
Astronomical Twilight 2:49 AM CDT 11:23 PM CDT
Moon 11:24 PM CDT (5/27) 8:01 AM CDT (5/27)
Length of Visible Light 16h 43m
Length of Day
15h 28m
Waning Gibbous, 91% of the Moon is Illuminated
May 27
Waning Gibbous
May 31
Last Quarter
Jun 8
New
Jun 16
First Quarter
Jun 23
Full

Hourly Weather History & Observations

Time (CDT) Temp. Windchill Dew Point Humidity Pressure Visibility Wind Dir Wind Speed Gust Speed Precip Events Conditions
12:13 AM 42.8 °F 38.0 °F 37.4 °F 81% 30.16 in 10.0 mi East 8.1 mph - N/A   Clear
12:34 AM 41.0 °F 37.1 °F 37.4 °F 87% 30.13 in 10.0 mi NE 5.8 mph - N/A   Clear
12:53 AM 39.2 °F 34.2 °F 35.6 °F 87% 30.14 in 10.0 mi North 6.9 mph - N/A   Clear
1:13 AM 39.2 °F 35.9 °F 35.6 °F 87% 30.14 in 10.0 mi NE 4.6 mph - N/A   Clear
1:34 AM 39.2 °F - 35.6 °F 87% 30.15 in 10.0 mi Calm Calm - N/A   Clear
1:53 AM 41.0 °F 36.4 °F 35.6 °F 81% 30.14 in 10.0 mi North 6.9 mph - N/A   Clear
2:13 AM 41.0 °F 35.8 °F 35.6 °F 81% 30.13 in 10.0 mi NNE 8.1 mph - N/A   Clear
2:34 AM 41.0 °F 35.2 °F 35.6 °F 81% 30.13 in 10.0 mi NNE 9.2 mph - N/A   Clear
2:53 AM 39.2 °F 33.6 °F 35.6 °F 87% 30.13 in 10.0 mi NNE 8.1 mph - N/A   Clear
3:13 AM 39.2 °F 34.2 °F 35.6 °F 87% 30.13 in 10.0 mi NNE 6.9 mph - N/A   Clear
3:34 AM 39.2 °F 34.2 °F 35.6 °F 87% 30.12 in 10.0 mi NNE 6.9 mph - N/A   Clear
3:53 AM 39.2 °F 34.2 °F 35.6 °F 87% 30.12 in 10.0 mi NNE 6.9 mph - N/A   Clear
4:13 AM 39.2 °F 34.2 °F 35.6 °F 87% 30.11 in 10.0 mi NNE 6.9 mph - N/A   Clear
4:34 AM 39.2 °F 35.0 °F 35.6 °F 87% 30.11 in 10.0 mi NE 5.8 mph - N/A   Clear
4:53 AM 39.2 °F 33.6 °F 35.6 °F 87% 30.10 in 10.0 mi NE 8.1 mph - N/A   Clear
5:13 AM 39.2 °F 33.6 °F 35.6 °F 87% 30.10 in 10.0 mi ENE 8.1 mph - N/A   Clear
5:34 AM 39.2 °F 35.0 °F 35.6 °F 87% 30.12 in 10.0 mi ENE 5.8 mph - N/A   Clear
5:53 AM 39.2 °F 35.9 °F 35.6 °F 87% 30.12 in 10.0 mi NE 4.6 mph - N/A   Clear
6:13 AM 39.2 °F 37.0 °F 35.6 °F 87% 30.13 in 10.0 mi ENE 3.5 mph - N/A   Clear
6:34 AM 39.2 °F 34.2 °F 35.6 °F 87% 30.12 in 10.0 mi NE 6.9 mph - N/A   Scattered Clouds
6:53 AM 39.2 °F 34.2 °F 35.6 °F 87% 30.13 in 10.0 mi NE 6.9 mph - N/A   Mostly Cloudy
7:13 AM 39.2 °F 33.0 °F 37.4 °F 93% 30.13 in 10.0 mi ENE 9.2 mph - N/A   Overcast
7:34 AM 39.2 °F 33.0 °F 37.4 °F 93% 30.12 in 10.0 mi ENE 9.2 mph - N/A   Overcast
7:53 AM 41.0 °F 34.7 °F 37.4 °F 87% 30.12 in 10.0 mi ENE 10.4 mph - N/A   Overcast
8:14 AM 41.0 °F 33.9 °F 37.4 °F 87% 30.11 in 10.0 mi ENE 12.7 mph - N/A   Overcast
8:33 AM 41.0 °F 33.5 °F 37.4 °F 87% 30.10 in 10.0 mi ENE 13.8 mph - N/A   Overcast
8:53 AM 41.0 °F 33.1 °F 37.4 °F 87% 30.10 in 10.0 mi ENE 15.0 mph - N/A   Overcast
9:13 AM 42.8 °F 36.2 °F 37.4 °F 81% 30.11 in 10.0 mi East 12.7 mph - N/A   Overcast
9:34 AM 42.8 °F 36.6 °F 37.4 °F 81% 30.09 in 10.0 mi East 11.5 mph - N/A   Overcast
9:53 AM 42.8 °F 36.2 °F 37.4 °F 81% 30.08 in 10.0 mi East 12.7 mph - N/A   Overcast
10:13 AM 42.8 °F 36.6 °F 37.4 °F 81% 30.09 in 10.0 mi East 11.5 mph - N/A   Overcast
10:34 AM 42.8 °F 37.0 °F 37.4 °F 81% 30.08 in 10.0 mi East 10.4 mph - N/A   Overcast
10:53 AM 42.8 °F 37.0 °F 37.4 °F 81% 30.07 in 10.0 mi East 10.4 mph - N/A   Overcast
11:14 AM 42.8 °F 36.6 °F 37.4 °F 81% 30.07 in 10.0 mi ENE 11.5 mph - N/A   Overcast
11:34 AM 42.8 °F 36.2 °F 37.4 °F 81% 30.06 in 10.0 mi East 12.7 mph - N/A   Overcast
11:53 AM 42.8 °F 35.8 °F 37.4 °F 81% 30.05 in 10.0 mi East 13.8 mph - N/A   Overcast
12:14 PM 42.8 °F 36.6 °F 37.4 °F 81% 30.05 in 10.0 mi ENE 11.5 mph - N/A   Overcast
12:34 PM 42.8 °F 37.5 °F 37.4 °F 81% 30.04 in 10.0 mi ENE 9.2 mph - N/A   Overcast
12:53 PM 44.6 °F 39.2 °F 37.4 °F 76% 30.03 in 10.0 mi ENE 10.4 mph - N/A   Mostly Cloudy
1:14 PM 44.6 °F 40.7 °F 37.4 °F 76% 30.02 in 10.0 mi ENE 6.9 mph - N/A   Mostly Cloudy
1:33 PM 44.6 °F 39.2 °F 37.4 °F 76% 30.01 in 10.0 mi ENE 10.4 mph - N/A   Mostly Cloudy
1:54 PM 44.6 °F 39.2 °F 37.4 °F 76% 30.01 in 10.0 mi East 10.4 mph - N/A   Mostly Cloudy
2:14 PM 44.6 °F 39.2 °F 37.4 °F 76% 30.01 in 10.0 mi East 10.4 mph - N/A   Overcast
2:33 PM 44.6 °F 37.8 °F 37.4 °F 76% 30.01 in 10.0 mi ENE 15.0 mph - N/A   Overcast
2:54 PM 44.6 °F 39.7 °F 37.4 °F 76% 30.01 in 10.0 mi East 9.2 mph - N/A   Mostly Cloudy
3:13 PM 44.6 °F 38.4 °F 37.4 °F 76% 30.01 in 10.0 mi East 12.7 mph - N/A   Mostly Cloudy
3:34 PM 46.4 °F 41.9 °F 35.6 °F 66% 30.00 in 10.0 mi East 9.2 mph - N/A   Overcast
3:53 PM 46.4 °F 40.4 °F 35.6 °F 66% 30.00 in 10.0 mi East 13.8 mph - N/A   Overcast
4:14 PM 48.2 °F - 37.4 °F 66% 29.99 in 10.0 mi East 11.5 mph - N/A   Mostly Cloudy
4:34 PM 48.2 °F - 37.4 °F 66% 29.98 in 10.0 mi East 12.7 mph - N/A   Scattered Clouds
4:53 PM 46.4 °F 41.5 °F 37.4 °F 71% 29.98 in 10.0 mi East 10.4 mph - N/A   Scattered Clouds
5:14 PM 46.4 °F 41.9 °F 37.4 °F 71% 29.98 in 10.0 mi East 9.2 mph - N/A   Mostly Cloudy
5:33 PM 46.4 °F 42.9 °F 37.4 °F 71% 29.98 in 10.0 mi East 6.9 mph - N/A   Mostly Cloudy
5:53 PM 44.6 °F 42.2 °F 37.4 °F 76% 29.98 in 10.0 mi ESE 4.6 mph - N/A   Mostly Cloudy
6:14 PM 44.6 °F - 37.4 °F 76% 29.97 in 10.0 mi Calm Calm - N/A   Mostly Cloudy
6:33 PM 44.6 °F 41.4 °F 35.6 °F 71% 29.96 in 10.0 mi NNE 5.8 mph - N/A   Overcast
6:53 PM 44.6 °F 40.7 °F 35.6 °F 71% 29.95 in 10.0 mi NE 6.9 mph - N/A   Overcast
7:14 PM 44.6 °F 41.4 °F 35.6 °F 71% 29.94 in 10.0 mi ENE 5.8 mph - N/A   Overcast
7:33 PM 44.6 °F 40.7 °F 35.6 °F 71% 29.93 in 10.0 mi NE 6.9 mph - N/A   Overcast
7:53 PM 44.6 °F 41.4 °F 37.4 °F 76% 29.94 in 10.0 mi ENE 5.8 mph - N/A   Overcast
8:14 PM 42.8 °F 40.1 °F 37.4 °F 81% 29.94 in 10.0 mi ENE 4.6 mph - N/A   Overcast
8:33 PM 42.8 °F 38.6 °F 37.4 °F 81% 29.94 in 10.0 mi ENE 6.9 mph - N/A   Overcast
8:53 PM 42.8 °F 37.5 °F 37.4 °F 81% 29.93 in 10.0 mi East 9.2 mph - N/A   Overcast
9:14 PM 42.8 °F 38.0 °F 37.4 °F 81% 29.94 in 10.0 mi East 8.1 mph - N/A   Overcast
9:33 PM 44.6 °F 39.7 °F 37.4 °F 76% 29.94 in 10.0 mi East 9.2 mph - N/A   Overcast
9:53 PM 44.6 °F 39.7 °F 37.4 °F 76% 29.94 in 10.0 mi East 9.2 mph - N/A   Overcast
10:14 PM 44.6 °F 39.7 °F 37.4 °F 76% 29.94 in 10.0 mi East 9.2 mph - N/A   Overcast
10:33 PM 44.6 °F 39.7 °F 37.4 °F 76% 29.94 in 10.0 mi East 9.2 mph - N/A   Overcast
10:53 PM 42.8 °F 39.3 °F 37.4 °F 81% 29.94 in 10.0 mi NNE 5.8 mph - N/A   Overcast
11:13 PM 42.8 °F 38.0 °F 37.4 °F 81% 29.94 in 10.0 mi NNE 8.1 mph - N/A   Overcast
11:33 PM 42.8 °F 40.1 °F 37.4 °F 81% 29.93 in 10.0 mi NNE 4.6 mph - N/A   Overcast
11:54 PM 42.8 °F 39.3 °F 37.4 °F 81% 29.93 in 10.0 mi NNE 5.8 mph - N/A   Overcast